www.pogodaiklimat.ru

Погода и климат >> Архив погоды >> Мадагаскар >> Antsiranana


ПОГОДА в Antsiranana

  • Прогноз погоды в Antsiranana
  • Монитор погоды в Antsiranana
  • Климат города

АРХИВ ПОГОДЫ в Antsiranana

Время (UTC), дата Ветер
(напр.,м/с)
 
Видим.   Явления Облачность Т
(С)
Тd
(С)
f
(%)
Тe
(С)
Тes
(С)
Комфортность P
(гПа)
Po
(гПа)
Тmin
(С)
Tmax
(С)
R
(мм)
R24
(мм)
S
(см)
00 7.12 ЮВ 5 30 км 4/3 600 м
[Cu Sc Ci sp]
+24.7 +19.6 73 +30 +30 очень
душно
1011.9 1000.0
03 7.12 В 5 30 км осадки на расстоянии 8/5 500 м
[Cu Sc Ci sp]
+25.0 +25.0 100 +36 +36 очень
душно
1011.7 999.8
06 7.12 ЮВ 6 40 км 6/3 600 м
[Cu Sc Ci sp]
+30.6 +20.9 56 +38 +41 очень
душно
1012.5 1000.6 +24.2 +34.4
09 7.12 ЮВ 5 40 км 4/3 600 м
[Cu Sc Ci sp]
+34.0 +19.7 43 +40 +47 очень
душно
1010.1 998.3
12 7.12 ЮВ 6 40 км 3/3 600 м
[Cb cap]
+32.0 +20.1 49 +38 +41 очень
душно
1009.4 999.7
18 7.12 ЮВ 11
{17}
30 км осадки на расстоянии 8/8 600 м
[Cu Sc]
+27.5 +21.4 69 +35 +35 очень
душно
1013.2 1001.4 +34.5
00 8.12 ЮВ 7 30 км 3/3 600 м
[Cu Sc]
+25.8 +21.6 78 +33 +33 очень
душно
1010.8 999.0
03 8.12 ЮВ 6 40 км 3/3 600 м
[Cu Sc]
+25.0 +22.1 84 +32 +32 очень
душно
1011.5 999.7
06 8.12 ЮВ 7 40 км 6/6 600 м
[Cu Sc]
+30.5 +20.9 57 +38 +39 очень
душно
1012.2 1000.4 +25.0 +34.5
09 8.12 ЮВ 8 40 км 4/4 600 м
[Cu Sc]
+32.5 +20.9 50 +40 +42 очень
душно
1011.0 999.2
12 8.12 ЮВ 8 40 км 4/3 600 м
[Cu Sc Ci sp]
+32.0 +20.4 50 +39 +40 очень
душно
1009.7 997.9
15 8.12 ЮВ 7 40 км 4/4 600 м
[Cb cap]
+28.4 +21.1 65 +36 +36 очень
душно
1011.5 999.7 +33.5
18 8.12 ЮВ 6 30 км зарница 3/3 600 м
[Cb cap]
+27.0 +21.8 73 +35 +35 очень
душно
1013.1 1001.3 +33.5
00 9.12 ЮВ 3 30 км 3/3 600 м
[Cu Sc]
+24.5 +20.7 79 +30 +30 очень
душно
1011.6 999.8
03 9.12 ЮВ 4 40 км 1/1 600 м
[Cu Sc]
+25.0 +20.6 77 +31 +31 очень
душно
1012.1 1000.3
06 9.12 ЮВ 6 40 км 4/4 600 м
[Cb cap Ci ing]
+32.0 +19.2 47 +38 +40 очень
душно
1013.4 1001.7 +24.6 +33.5
09 9.12 В 6 40 км 4/4 600 м
[Cb cap Ci ing]
+33.6 +19.2 43 +39 +44 очень
душно
1011.7 999.9
12 9.12 ЮВ 5 40 км 5/3 600 м
[Cb cap Ac trans Ci ing]
+31.5 +20.4 52 +38 +41 очень
душно
1010.5 998.7
15 9.12 ЮВ 5 30 км 6/4 600 м
[Cb cap Ci sp]
+28.0 +21.3 67 +35 +35 очень
душно
1012.1 1000.2 +34.3
18 9.12 ЮВ 7 30 км зарница 4/4 600 м
[Cb cap Ci sp]
+27.0 +22.3 75 +35 +35 очень
душно
1013.4 1001.7 +34.3
00 10.12 ЮВ 4 30 км 4/3 600 м
[Cu Sc Ci sp]
+24.8 +19.9 74 +30 +30 душно 1012.7 1000.9
03 10.12 Ю 4 40 км 6/5 600 м
[Cu Sc Ci sp]
+25.5 +20.2 73 +31 +32 очень
душно
1013.5 1001.6
09 10.12 СВ 6 40 км 3/3 600 м
[Cu Sc Ci sp]
+33.7 +19.1 42 +39 +44 очень
душно
1011.3 999.6
12 10.12 ЮВ 4 40 км 8/5 600 м
[Cb cap Ci sp]
+29.5 +20.0 57 +36 +39 очень
душно
1011.3 999.5
15 10.12 ЮВ 3 30 км 5/4 600 м
[Cb cap Ci sp]
+28.0 +21.2 67 +35 +35 очень
душно
1012.0 1000.1 +34.6
18 10.12 Ю 4 30 км зарница 4/4 600 м
[Cb cap Ci sp]
+26.3 +23.0 82 +35 +35 очень
душно
1012.8 1001.0 +34.6
00 11.12 Ю 3 30 км 4/3 600 м
[Cu Sc Ci sp]
+23.9 +20.4 81 +30 +30 очень
душно
1012.1 1000.3
03 11.12 Ю 3 40 км 4/1 600 м
[Cb cap Ci sp]
+23.5 +20.3 82 +29 +29 душно 1013.0 1001.1
06 11.12 ЮВ 4 40 км 3/3 600 м
[Cb cap Ci sp]
+31.5 +20.4 52 +38 +44 очень
душно
1013.6 1001.8 +23.2 +34.6
09 11.12 ЮВ 5 40 км осадки на расстоянии 5/5 600 м
[Cb cap]
+32.5 +21.5 52 +40 +46 очень
душно
1011.3 999.5
12 11.12 штиль 0 30 км осадки на расстоянии {дождь} 8/5 600 м
[Cb cap Ci sp]
+25.8 +21.6 78 +33 +39 очень
душно
1011.7 999.8 11
15 11.12 штиль 0 30 км 6/6 600 м
[Cb cap Ci sp]
+27.0 +22.6 77 +36 +36 очень
душно
1012.3 1000.4 +34.5
18 11.12 штиль 0 30 км зарница 3/3 600 м
[Cb cap]
+25.5 +23.3 88 +34 +34 очень
душно
1013.9 1002.0 +34.5 11
03 12.12 ЮВ 3 40 км 5/1 600 м
[Cb cap Ci sp]
+24.2 +22.4 90 +32 +32 очень
душно
1013.5 1001.6
06 12.12 штиль 0 40 км 5/5 700 м
[Cb cap]
+31.0 +22.3 60 +40 +49 очень
душно
1015.1 1003.2 +24.0 +34.5 11
09 12.12 В 3 40 км 5/5 700 м
[Cb cap]
+32.6 +21.5 52 +41 +49 опасность
перегрева
1013.6 1001.8
12 12.12 штиль 0 40 км 5/5 600 м
[Cb cap]
+28.0 +23.7 77 +38 +45 очень
душно
1011.9 1000.0
15 12.12 ЮВ 3 40 км 8/8 600 м
[Cb cap]
+27.5 +22.4 74 +36 +36 очень
душно
1013.7 1001.8 +33.0
18 12.12 штиль 0 30 км зарница 8/8 600 м
[Cb cap]
+26.0 +24.0 89 +36 +36 очень
душно
1015.7 1003.8 +33.0
00 13.12 штиль 0 30 км 4/4 600 м
[Cu Sc]
+24.0 +22.2 90 +31 +31 очень
душно
1014.5 1002.6
03 13.12 штиль 0 40 км 4/3 600 м
[Cb cap Ci sp]
+24.4 +21.7 85 +31 +32 очень
душно
1015.0 1003.1
06 13.12 Ю 4 40 км 5/5 600 м
[Cb cap Ci sp]
+30.5 +20.9 57 +38 +42 очень
душно
1015.2 1003.4 +23.5 +33.0
09 13.12 СВ 4 40 км 5/5 600 м
[Cb cap Ci sp]
+32.2 +21.7 54 +41 +48 опасность
перегрева
1012.9 1001.1
12 13.12 В 5 25 км гроза без осадков 5/5 600 м
[Cb cap Ci sp]
+31.2 +20.9 54 +38 +41 очень
душно
1011.6 999.8
15 13.12 ЮЗ 4 30 км 8/8 600 м
[Cu Sc Ci sp]
+26.2 +21.7 76 +34 +34 очень
душно
1013.6 1001.7 +34.0
18 13.12 ЮВ 5 20 км осадки на расстоянии {дождь} 6/6 600 м
[Cb cap]
+26.5 +22.9 81 +35 +35 очень
душно
1014.4 1002.6 +34.0 0.3

 

Местоположение метеостанции Antsiranana (Мадагаскар): широта -12.35 долгота 49.30 высота над уровнем моря 105 м.

В архиве по умолчанию представлена погода в Antsiranana за последнюю неделю. Архивные данные за месяц целиком и за предыдущие месяцы, начиная с января 2011 года, Вы можете получить, выбрав интересующий диапазон дат из раскрывающегося списка и нажав кнопку "Ввод!".


*Определитесь, кто Вы:
робот инопланетянин человек

Внимание! Время в таблицах - всемирное. Для получения местного времени необходимо прибавить поправку, которая в Antsiranana равна 3 ч.

Смотрите также архив погоды в соседних городах и на ближайших метеорологических станциях:

Погода в Fascene (Мадагаскар) (151 км)
Погода в Sambava (Мадагаскар) (234 км)
Погода в Glorieuses Island (Реюньон) (247 км)
Погода в Antalaha (Мадагаскар) (300 км)
Погода в Antsohihy (Мадагаскар) (316 км)
Погода в Dzaoudzi (Коморские Острова) (439 км)
Погода в Mahajanga (Мадагаскар) (487 км)
Погода в Nosy Boraha (Мадагаскар) (529 км)
Погода в Ambohitsilaozana (Мадагаскар) (594 км)
Погода в Toamasina (Мадагаскар) (641 км)

Пояснения к столбцам:

Ветер - указаны скорость ветра в м/с - средняя за 10 мин, порывы в срок и между сроками (в фигурных скобках) и направление, откуда дует ветер: С - северный, СВ - северо-восточный, В - восточный, ЮВ - юго-восточный, Ю - южный, ЮЗ - юго-западный, З - западный, СЗ - северо-западный.
Видимость - горизонтальная дальность видимости в метрах или километрах. При видимости от 1 до 10 км при отсутствии осадков обычно наблюдается дымка, при ухудшении видимости до 1 км и менее - туман. В сухую погоду видимость может ухудшаться дымом, пылью или мглою.
Явления - указаны атмосферные явления, наблюдавшиеся в срок или в последний час перед сроком; фигурными скобками обозначены явления, наблюдавшиеся между сроками (за 1-3 часа до срока); квадратными скобками обозначены град или гололедные отложения с указанием их диаметра в мм.
Облачность - указаны через наклонную черту общая и нижняя облачность в баллах и высота нижней границы облаков в метрах; квадратными скобками обозначены формы облаков: Ci - перистые, Cs - перисто-слоистые, Cc - перисто-кучевые, Ac - высококучевые, As - высокослоистые, Sc - слоисто-кучевые, Ns - слоисто-дождевые, Cu - кучевые, Cb - кучево-дождевые. Подробнее классификацию облаков см. в Атласе облаков (PDF).
T - Температура воздуха - температура, измеренная на высоте 2 м над землей.
Td - Температура точки росы - температура, при понижении до которой содержащийся в воздухе водяной пар достигнет насыщения.
f - Относительная влажность воздуха - влажноcть воздуха, измеренная на высоте 2 м над землей.
Te - Эффективная температура - температура, которую ощущает одетый по сезону человек в тени. Характеристика душности погоды. При расчете учитывается влияние влажности воздуха и скорости ветра на теплоощущения человека.
Tes - Эффективная температура на солнце - температура, которую ощущает человек, с поправкой на солнечный нагрев. Характеристика знойности погоды. Зависит от высоты солнца над горизонтом, облачности и скорости ветра. Ночью, в пасмурную погоду, а также при ветре 12 м/с и более поправка равна нулю.
P - Атмосферное давление - приведенное к уровню моря атмосферное давление.
Po - Атмосферное давление - измеренное на уровне метеостанции атмосферное давление.
Tmin - Минимальная температура - минимум температуры воздуха на высоте 2 м над землей.
Tmax - Максимальная температура - максимум температуры воздуха на высоте 2 м над землей.
R - Количество осадков - Количество выпавших осадков за период времени, мм. При наведении курсора мыши на число - период времени, за который выпало указанное количество осадков.
R24 - Количество осадков - Количество выпавших осадков за 24 часа, мм.
S - Снежный покров - Высота снежного покрова, см. При наведении курсора мыши на число - состояние снежного покрова и степень покрытия местности в баллах.